VE3VGJ Weather Reports


Display with metric or nautical units.
time (UTC)temp
F
wind
direction
speed
MPH
gust
MPH
rain 1hr
in
rain 24hr
in
rain mn
in
humidity
%
barometer
mb
20260504022150 44 83 0.0 0.0 0.00 0.06 0.06 92 1008.0
20260504021648 44 65 1.0 1.0 0.00 0.06 0.06 92 1007.8
20260504021145 44 64 0.0 0.0 0.00 0.06 0.06 92 1008.0
20260504020642 44 64 0.0 0.0 0.00 0.06 0.06 92 1008.1
20260504020138 44 64 0.0 0.0 0.00 0.06 0.06 92 1008.0
20260504015635 44 65 0.0 0.0 0.00 0.06 0.06 92 1008.1
20260504015131 44 64 0.0 0.0 0.00 0.06 0.06 92 1008.0
20260504014627 43 65 0.0 0.0 0.00 0.06 0.06 92 1008.1
20260504014124 43 58 0.0 0.0 0.00 0.06 0.06 91 1007.9
20260504013621 43 58 0.0 0.0 0.00 0.06 0.06 91 1007.7
20260504013118 43 59 0.0 0.0 0.00 0.06 0.06 91 1008.0
20260504012616 43 50 0.0 0.0 0.00 0.06 0.06 91 1007.6
20260504012114 43 54 0.0 0.0 0.00 0.06 0.06 91 1007.9
20260504011610 43 47 0.0 1.0 0.00 0.06 0.06 91 1007.8
20260504011107 43 31 2.0 2.0 0.05 0.06 0.06 90 1007.8
20260504010602 43 39 1.0 1.0 0.05 0.06 0.06 90 1008.1
20260504010058 43 16 3.0 3.0 0.00 0.05 0.05 90 1008.1
20260504005555 42 356 1.0 1.0 0.00 0.05 0.05 90 1008.2
20260504005053 42 9 0.0 1.0 0.00 0.05 0.05 90 1008.1
20260504004550 42 32 4.0 3.0 0.00 0.05 0.05 90 1008.0
20260504004047 42 68 1.0 1.0 0.00 0.05 0.05 90 1008.0
20260504003543 42 69 1.0 1.0 0.00 0.05 0.05 90 1008.0
20260504003040 42 69 0.0 0.0 0.00 0.05 0.05 90 1008.0
20260504002537 42 125 2.0 2.0 0.00 0.05 0.05 89 1008.1
20260504002035 42 139 2.0 2.0 0.00 0.05 0.05 89 1007.9
20260504001532 42 114 3.0 3.0 0.00 0.05 0.05 89 1008.0
20260504001028 44 136 4.0 4.0 0.00 0.05 0.05 90 1007.9
20260504000525 44 140 1.0 2.0 0.00 0.05 0.05 90 1007.9
20260504000023 44 72 0.0 0.0 0.00 0.05 0.05 90 1008.0
20260503235521 44 71 0.0 0.0 0.00 0.05 0.05 90 1007.7
20260503235017 44 72 0.0 0.0 0.00 0.05 0.05 90 1007.7
20260503234515 44 72 1.0 1.0 0.00 0.05 0.05 89 1007.9
20260503234014 44 71 0.0 0.0 0.00 0.05 0.05 89 1007.8
20260503233509 44 82 1.0 1.0 0.00 0.05 0.05 89 1008.0
20260503233005 44 86 1.0 1.0 0.00 0.05 0.05 89 1008.0
20260503232502 43 126 0.0 0.0 0.00 0.05 0.05 89 1008.0
20260503232000 43 126 0.0 0.0 0.00 0.05 0.05 89 1008.1
20260503231458 43 126 0.0 0.0 0.00 0.05 0.05 89 1008.1
20260503230954 43 126 0.0 0.0 0.00 0.05 0.05 88 1008.3
20260503230450 43 126 0.0 0.0 0.00 0.05 0.05 88 1008.1
20260503225948 43 127 0.0 0.0 0.00 0.05 0.05 88 1008.4
20260503225445 43 127 1.0 1.0 0.07 0.05 0.05 87 1008.2
20260503224940 43 130 1.0 2.0 0.07 0.05 0.05 87 1008.3
20260503224437 43 143 2.0 2.0 0.05 0.04 0.04 86 1008.4
20260503223935 43 136 2.0 2.0 0.05 0.04 0.04 85 1008.5
20260503223433 43 124 1.0 1.0 0.00 0.03 0.03 85 1008.8
20260503222928 43 123 1.0 1.0 0.07 0.03 0.03 83 1008.6
20260503222427 43 123 2.0 1.0 0.07 0.03 0.03 82 1008.7
20260503221925 43 137 3.0 3.0 0.00 0.02 0.02 79 1008.7
20260503221423 44 136 5.0 6.0 0.05 0.02 0.02 79 1008.7
20260503220919 45 176 0.0 1.0 0.05 0.02 0.02 77 1008.6
20260503220416 46 186 1.0 1.0 0.07 0.01 0.01 74 1008.6
20260503215913 46 153 0.0 1.0 0.07 0.01 0.01 71 1008.6
20260503215410 47 207 2.0 2.0 0.00 0.00 0.00 69 1009.0
20260503214908 48 197 1.0 1.0 0.00 0.00 0.00 66 1008.7
20260503214405 48 185 0.0 1.0 0.00 0.00 0.00 64 1008.3
20260503213902 49 166 0.0 1.0 0.00 0.00 0.00 61 1008.2
20260503213400 49 184 1.0 1.0 0.00 0.00 0.00 55 1008.1
20260503212856 50 169 1.0 2.0 0.00 0.00 0.00 54 1008.4
20260503212354 51 188 1.0 1.0 0.00 0.00 0.00 53 1008.0
20260503211851 51 190 2.0 3.0 0.00 0.00 0.00 49 1008.0
20260503211348 52 206 1.0 2.0 0.00 0.00 0.00 51 1008.1
20260503210843 52 200 2.0 2.0 0.00 0.00 0.00 48 1007.8
20260503210341 53 150 2.0 3.0 0.00 0.00 0.00 48 1007.9
20260503205835 53 202 1.0 2.0 0.00 0.00 0.00 47 1008.0
20260503205332 53 232 6.0 8.0 0.00 0.00 0.00 46 1008.0
20260503204829 53 207 2.0 2.0 0.00 0.00 0.00 43 1008.1
20260503204326 53 199 0.0 1.0 0.00 0.00 0.00 44 1008.1
20260503203823 54 207 1.0 1.0 0.00 0.00 0.00 44 1008.2
20260503203321 55 189 2.0 2.0 0.00 0.00 0.00 43 1008.3
20260503202817 55 197 1.0 1.0 0.00 0.00 0.00 44 1008.1
20260503202316 55 205 3.0 4.0 0.00 0.00 0.00 43 1008.2
20260503201814 56 146 5.0 8.0 0.00 0.00 0.00 43 1008.2
20260503201310 56 214 2.0 2.0 0.00 0.00 0.00 45 1008.1
20260503200808 56 138 2.0 2.0 0.00 0.00 0.00 44 1008.0
20260503200303 56 205 2.0 2.0 0.00 0.00 0.00 43 1008.3
20260503195801 56 171 3.0 3.0 0.00 0.00 0.00 39 1008.7
20260503195257 55 212 2.0 2.0 0.00 0.00 0.00 41 1008.8
20260503194755 55 193 1.0 1.0 0.00 0.00 0.00 42 1008.9
20260503194250 55 200 1.0 1.0 0.00 0.00 0.00 40 1009.0
20260503193747 55 245 4.0 4.0 0.00 0.00 0.00 37 1009.2
20260503193243 56 204 2.0 2.0 0.00 0.00 0.00 35 1009.2
20260503192739 54 204 4.0 4.0 0.00 0.00 0.00 34 1009.5
20260503192234 53 243 5.0 7.0 0.00 0.00 0.00 33 1009.6
20260503191731 53 192 2.0 2.0 0.00 0.00 0.00 35 1009.7
20260503191228 53 237 9.0 10.0 0.00 0.00 0.00 33 1009.6
20260503190725 54 215 4.0 4.0 0.00 0.00 0.00 34 1009.8
20260503190221 54 201 2.0 4.0 0.00 0.00 0.00 32 1009.8
20260503185719 55 258 3.0 3.0 0.00 0.00 0.00 31 1010.0
20260503185214 55 226 7.0 8.0 0.00 0.00 0.00 28 1010.0
20260503184709 54 259 3.0 3.0 0.00 0.00 0.00 29 1010.0
20260503184206 54 189 5.0 6.0 0.00 0.00 0.00 28 1010.1
20260503183702 53 220 5.0 6.0 0.00 0.00 0.00 28 1010.3
20260503183200 53 201 4.0 4.0 0.00 0.00 0.00 32 1010.1
20260503182658 52 192 5.0 7.0 0.00 0.00 0.00 33 1010.3
20260503182156 51 195 4.0 4.0 0.00 0.00 0.00 35 1010.4
20260503181652 53 224 6.0 8.0 0.00 0.00 0.00 33 1010.7
20260503181149 53 241 3.0 3.0 0.00 0.00 0.00 31 1010.8
20260503180646 52 207 3.0 3.0 0.00 0.00 0.00 35 1010.6
20260503180144 52 225 5.0 7.0 0.00 0.00 0.00 40 1010.7
20260503175641 50 228 5.0 7.0 0.00 0.00 0.00 42 1010.8
20260503175138 49 188 4.0 4.0 0.00 0.00 0.00 43 1010.9
20260503174634 48 211 5.0 6.0 0.00 0.00 0.00 46 1011.2
20260503174132 47 232 2.0 2.0 0.00 0.00 0.00 50 1011.0
20260503173626 48 247 6.0 8.0 0.00 0.00 0.00 49 1011.3
20260503173123 48 242 2.0 6.0 0.00 0.00 0.00 50 1011.4
20260503172620 49 203 5.0 6.0 0.00 0.00 0.00 47 1011.3
20260503172118 49 244 4.0 4.0 0.00 0.00 0.00 47 1011.3
20260503171614 49 258 6.0 8.0 0.00 0.00 0.00 47 1011.2
20260503171111 50 238 4.0 4.0 0.00 0.00 0.00 47 1011.4
20260503170608 48 197 3.0 3.0 0.00 0.00 0.00 49 1011.5
20260503170105 48 232 4.0 4.0 0.00 0.00 0.00 48 1011.6
20260503151000 45 210 4.0 4.0 0.00 0.00 0.00 63 1012.7
20260503150456 45 203 4.0 4.0 0.00 0.00 0.00 63 1012.8
20260503131349 44 145 4.0 4.0 0.00 0.00 0.00 53 1013.1
20260503130847 44 200 2.0 2.0 0.00 0.00 0.00 55 1013.1
20260503130344 44 154 4.0 4.0 0.00 0.00 0.00 54 1013.1
20260503110738 33 291 0.0 0.0 0.00 0.00 0.00 71 1013.1
20260503110235 32 291 0.0 0.0 0.00 0.00 0.00 75 1013.4
20260503100201 28 291 0.0 0.0 0.00 0.00 0.00 85 1013.3
20260503090126 28 291 0.0 0.0 0.00 0.00 0.00 83 1013.3
20260503081602 29 291 0.0 0.0 0.00 0.00 0.00 81 1013.4
20260503081059 29 291 0.0 0.0 0.00 0.00 0.00 81 1013.4
20260503080554 29 291 0.0 0.0 0.00 0.00 0.00 80 1013.4
20260503072529 30 291 0.0 0.0 0.00 0.00 0.00 79 1013.5
20260503072026 30 291 0.0 0.0 0.00 0.00 0.00 79 1013.2
20260503071522 31 291 0.0 0.0 0.00 0.00 0.00 77 1013.4
20260503071019 31 291 0.0 0.0 0.00 0.00 0.00 76 1013.4
20260503070516 32 291 0.0 0.0 0.00 0.00 0.00 75 1013.7
20260503054939 32 291 0.0 0.0 0.00 0.00 0.00 81 1013.9
20260503054436 32 291 0.0 0.0 0.00 0.00 0.00 81 1013.7
20260503053933 32 291 0.0 0.0 0.00 0.00 0.00 80 1013.9
20260503053431 32 291 0.0 0.0 0.00 0.00 0.00 79 1014.0
20260503052927 33 291 0.0 0.0 0.00 0.00 0.00 79 1014.2
20260503052425 33 291 0.0 0.0 0.00 0.00 0.00 78 1014.1
20260503051921 33 290 0.0 0.0 0.00 0.00 0.00 78 1014.2
20260503051417 33 282 0.0 0.0 0.00 0.00 0.00 78 1014.1
20260503050914 33 282 0.0 0.0 0.00 0.00 0.00 78 1014.0
20260503050410 33 282 0.0 0.0 0.00 0.00 0.00 78 1014.1
20260503045908 33 282 0.0 0.0 0.00 0.00 0.00 79 1014.3
20260503045405 33 282 0.0 0.0 0.00 0.00 0.00 79 1014.2
20260503044902 33 282 0.0 0.0 0.00 0.00 0.00 79 1014.1
20260503044359 33 282 0.0 0.0 0.00 0.00 0.00 79 1014.2
20260503043856 33 282 0.0 0.0 0.00 0.00 0.00 78 1014.4
20260503043353 33 282 0.0 0.0 0.00 0.00 0.00 78 1014.6
20260503042849 33 282 0.0 0.0 0.00 0.00 0.00 78 1014.4
20260503042346 33 282 0.0 0.0 0.00 0.00 0.00 78 1014.2
20260503041841 33 282 0.0 0.0 0.00 0.00 0.00 78 1014.2
20260503041339 34 282 0.0 0.0 0.00 0.00 0.00 77 1014.3
20260503040837 34 282 0.0 0.0 0.00 0.00 0.00 75 1014.4
20260503040334 35 282 0.0 0.0 0.00 0.00 0.00 75 1014.4
20260503035831 35 282 0.0 0.0 0.00 0.00 0.00 75 1014.3
20260503035328 35 282 0.0 0.0 0.00 0.00 0.00 74 1014.4
20260503034825 35 282 0.0 0.0 0.00 0.00 0.00 74 1014.4
20260503034323 35 279 0.0 0.0 0.00 0.00 0.00 74 1014.5
20260503033820 35 278 0.0 0.0 0.00 0.00 0.00 74 1014.5
20260503033317 35 278 0.0 0.0 0.00 0.00 0.00 74 1014.3
20260503032815 35 278 0.0 0.0 0.00 0.00 0.00 73 1014.5
20260503032314 35 278 0.0 0.0 0.00 0.00 0.00 73 1014.3
20260503031811 35 278 0.0 0.0 0.00 0.00 0.00 72 1014.4
20260503031309 35 278 0.0 0.0 0.00 0.00 0.00 71 1014.2
20260503030804 35 278 0.0 0.0 0.00 0.00 0.00 70 1014.4
20260503030301 36 278 0.0 0.0 0.00 0.00 0.00 70 1014.3
20260503025758 36 278 0.0 0.0 0.00 0.00 0.00 70 1014.2
20260503025255 36 278 0.0 0.0 0.00 0.00 0.00 68 1014.4
20260503024752 36 278 0.0 0.0 0.00 0.00 0.00 67 1014.4
20260503024249 36 279 0.0 0.0 0.00 0.00 0.00 66 1014.6
20260503023746 36 278 0.0 0.0 0.00 0.00 0.00 67 1014.7
20260503023243 36 278 0.0 0.0 0.00 0.00 0.00 66 1014.6
20260503022739 37 278 0.0 0.0 0.00 0.00 0.00 65 1014.8